Location: *
(47.2969°N, 10.2930°E)
Time: 17:55:50
(UTC+00:00)

USA 234 - Pass Details

Date: 09 April 2020
Orbit: 1102 x 1106 km, 123.0° (Epoch: 14 May)

Event Time Altitude Azimuth Distance (km) Brightness Sun altitude
Rises 19:50:53 0° 55° (NE) 3,926 6.0 -18.0°
Reaches altitude 10° 19:53:34 10° 63° (ENE) 2,965 5.2 -18.3°
Maximum altitude 19:59:38 39° 131° (SE) 1,586 3.6 -19.2°
Drops below altitude 10° 20:05:41 10° 199° (SSW) 2,954 5.3 -20.0°
Sets 20:08:21 0° 207° (SSW) 3,909 6.0 -20.3°
